TIME,DELAY(SENSOR),PRES,T(CTD),SAL,OXYGEN,RAWTEMP,T(OPTODE),TCPHASE,TURBIDITY,TURBIDITY_GAIN,FLUOR,BETA,CDOM,CHECK
1340075696,5787,290.6900024414062500,12.1645002365112300,35.5488014221191400,269.3396911621094000,424.1412048339844000,12.1640501022338870,32.1361007690429700,16,3,49,101,60,59432
1340075756,5788,288.3800048828125000,12.1912002563476560,35.5531997680664060,269.0687866210937500,423.6138916015625000,12.1802501678466800,32.1397590637207000,16,3,48,95,62,45267
1340075816,5790,286.1400146484375000,12.2381000518798830,35.5675010681152340,268.4375915527344000,421.7076110839844000,12.2387695312500000,32.1383399963378900,16,3,49,97,61,44622
1340075876,5789,283.9599914550781000,12.2713003158569340,35.5721015930175800,267.7705078125000000,420.8569946289062500,12.2648801803588870,32.1544914245605500,16,3,49,96,62,30456
1340075936,5787,281.7399902343750000,12.2629003524780270,35.5681991577148440,268.0602111816406000,420.9689941406250000,12.2614498138427730,32.1439514160156250,16,3,49,97,62,59064
1340075996,5789,279.5299987792969000,12.2708997726440430,35.5671997070312500,268.8375854492187500,420.6903076171875000,12.2700004577636720,32.1065788269043000,16,3,49,97,62,4823
1340076056,5787,277.4299926757812500,12.2924003601074220,35.5699996948242200,269.1134033203125000,420.0682067871094000,12.2890901565551760,32.0856208801269500,16,3,49,96,62,43660
1340076116,5788,275.4800109863281000,12.2955999374389650,35.5707015991210940,269.1788024902344000,419.8875122070312500,12.2946395874023440,32.0802993774414060,16,3,49,96,61,14628
1340076204,5787,272.0000000000000000,12.3163003921508790,35.5695991516113300,269.7408142089844000,419.3341979980469000,12.3116197586059570,32.0481300354003900,16,3,49,98,61,42134
1340076264,5787,268.8299865722656000,12.2832002639770500,35.5579986572265600,272.0407104492187500,420.3367919921875000,12.2808504104614260,31.9658298492431640,16,3,48,99,61,46370
1340076326,5788,265.5299987792969000,12.3087997436523440,35.5577011108398440,274.7551879882812500,419.3226013183594000,12.3119697570800780,31.8378791809082030,16,3,49,95,62,24776
1340076386,5789,262.4200134277344000,12.3295001983642580,35.5586013793945300,275.7188110351562500,418.7687988281250000,12.3289699554443360,31.7897701263427730,16,3,48,101,61,62659
1340076448,5787,259.1900024414062500,12.3617000579833980,35.5630989074707000,274.8234863281250000,417.8652954101562500,12.3566904067993160,31.8138904571533200,16,3,49,99,60,58850
1340076508,5788,256.1499938964844000,12.3682003021240230,35.5602989196777340,274.5296020507812500,417.5921020507812500,12.3650703430175780,31.8216896057128900,16,3,49,99,61,5709
1340076570,5789,253.0500030517578000,12.3710002899169920,35.5588989257812500,275.5432128906250000,417.3970947265625000,12.3710498809814450,31.7769508361816400,16,3,48,97,61,6289
1340076630,5789,250.0700073242187500,12.3860998153686520,35.5558013916015600,276.9660034179687500,417.0300903320312500,12.3823099136352540,31.7130298614501950,16,3,47,100,61,28466
1340076692,5790,247.0000000000000000,12.3802003860473630,35.5531997680664060,279.2608947753906000,417.1499023437500000,12.3786296844482420,31.6212501525878900,16,3,49,100,60,32672
1340076752,5790,244.0299987792968800,12.3839998245239260,35.5531005859375000,280.8187866210937500,417.0179138183594000,12.3826799392700200,31.5559806823730470,15,3,49,100,59,40416
1340076814,5789,241.0099945068359400,12.4004001617431640,35.5542984008789060,281.7719116210937500,416.5509033203125000,12.3970098495483400,31.5107402801513670,16,3,49,98,60,61041
1340076874,5789,238.1399993896484400,12.4223003387451170,35.5575981140136700,282.2471923828125000,415.7782897949219000,12.4207000732421880,31.4805603027343750,14,3,48,101,61,2661
1340076936,5790,235.1499938964843800,12.4554004669189450,35.5616989135742200,281.7398071289062500,414.7786865234375000,12.4513502120971680,31.4862709045410160,16,3,48,98,60,42663
1340076996,5790,232.3099975585937500,12.5197000503540040,35.5742988586425800,280.3970947265625000,412.7182922363281000,12.5145196914672850,31.5106296539306640,14,3,48,104,61,18390
1340077058,5788,229.4100036621093800,12.5446996688842770,35.5791015625000000,278.7571105957031000,411.7921142578125000,12.5429096221923830,31.5637798309326170,16,3,48,98,61,11114
1340077118,5790,226.6699981689453000,12.5566997528076170,35.5797004699707000,278.7009887695312500,411.3475952148437500,12.5565395355224610,31.5598201751709000,16,3,50,101,60,16210
1340077180,5790,223.8899993896484400,12.5655002593994140,35.5816001892089840,278.6308898925781000,411.0504150390625000,12.5656404495239260,31.5582695007324220,16,3,49,101,61,27214
1340077240,5789,221.1999969482422000,12.5858001708984380,35.5831985473632800,278.7665100097656000,410.3259887695312500,12.5878400802612300,31.5422992706298830,16,3,49,99,61,9238
1340077302,5789,218.4299926757812500,12.5944004058837890,35.5798988342285160,280.7831115722656000,410.3882141113281000,12.5859403610229500,31.4614601135253900,10,3,49,102,59,23
1340077362,5790,215.7899932861328000,12.5707998275756840,35.5696983337402340,283.4602966308594000,410.7749938964844000,12.5740900039672850,31.3596000671386720,16,3,50,103,60,47752
1340077424,5790,213.0399932861328000,12.5946998596191400,35.5708999633789060,284.9291076660156000,410.0867004394531000,12.5951795578002930,31.2913703918457030,16,3,50,100,60,14830
1340077484,5789,210.3899993896484400,12.6149997711181640,35.5746994018554700,286.0256958007812500,409.5347900390625000,12.6120901107788090,31.2399101257324220,16,3,49,100,60,56888
1340077546,5791,207.5899963378906200,12.6531000137329100,35.5789985656738300,286.6343078613281000,408.3229064941406000,12.6492099761962890,31.1987800598144530,16,3,49,102,60,42884
1340077606,5789,204.9600067138672000,12.6609001159667970,35.5814018249511700,287.2883911132812500,408.1076049804687500,12.6558103561401370,31.1699295043945300,16,3,49,101,59,40905
1340077668,5789,202.2500000000000000,12.6991996765136720,35.5872001647949200,288.4176940917969000,406.7267150878906000,12.6981096267700200,31.1058998107910160,16,3,47,97,59,35824
1340077728,5787,199.6499938964843800,12.7167997360229500,35.5901985168457000,289.9231872558594000,406.1473999023437500,12.7158498764038090,31.0393104553222660,16,3,49,99,59,53852
1340077790,5788,196.9600067138672000,12.7311000823974610,35.5918998718261700,290.6162109375000000,405.6695861816406000,12.7304801940917970,31.0053291320800780,16,3,50,96,59,8726
1340077850,5788,194.4199981689453000,12.7512998580932620,35.5946006774902340,291.2354125976562500,404.9837951660156000,12.7514801025390620,30.9717807769775400,16,3,50,99,58,57493
1340077912,5788,191.8999938964843800,12.7772998809814450,35.5993995666503900,291.4895019531250000,404.2084045410156000,12.7752199172973630,30.9508495330810550,15,3,49,99,58,15642
1340077972,5788,189.4700012207031200,12.7852001190185550,35.6007003784179700,291.6370849609375000,403.8981933593750000,12.7847099304199220,30.9408092498779300,16,3,50,95,59,16378
1340078034,5788,187.0000000000000000,12.7986001968383790,35.6016998291015600,291.6227111816406000,403.4404907226562500,12.7987203598022460,30.9349002838134770,16,3,48,96,59,27070
1340078094,5788,184.6799926757812500,12.8064002990722660,35.6021995544433600,291.5425109863281000,403.1787109375000000,12.8067398071289060,30.9341506958007800,16,3,49,95,59,49068
1340078181,5788,180.7200012207031200,12.7952995300292970,35.5956001281738300,292.2643127441406000,403.5238952636719000,12.7961702346801760,30.9113807678222660,16,3,50,97,60,54882
1340078241,5788,177.2500000000000000,12.8170003890991210,35.5982017517089840,293.0098876953125000,402.7575073242187500,12.8196296691894530,30.8717803955078120,16,3,49,99,59,15219
1340078303,5787,173.5800018310547000,12.8400001525878900,35.5993003845214840,293.2867126464844000,402.1408081054687500,12.8385000228881840,30.8525295257568360,16,3,50,99,60,36800
1340078363,5790,169.9199981689453000,12.8676996231079100,35.6021003723144500,293.2149963378906000,401.2579040527344000,12.8655195236206050,30.8428707122802730,16,3,49,99,59,34826
1340078447,5791,165.2200012207031200,12.8797998428344730,35.6043014526367200,293.0971069335937500,400.7831115722656000,12.8800497055053710,30.8404293060302730,16,3,50,99,60,4902
1340078507,5789,162.5200042724609400,12.8866996765136720,35.6054000854492200,293.0119018554687500,400.5487976074219000,12.8872203826904300,30.8406391143798830,16,3,50,98,58,5900
1340078569,5789,159.7700042724609400,12.9068002700805660,35.6080017089843750,292.5321044921875000,399.9631042480469000,12.9051399230957030,30.8506908416748050,16,3,50,99,60,3513
1340078629,5788,157.1300048828125000,12.9364004135131840,35.6113014221191400,291.9696044921875000,399.0878906250000000,12.9319200515747070,30.8597793579101560,16,3,51,98,59,5601
1340078691,5789,154.4600067138672000,12.9795999526977540,35.6181983947753900,291.1064147949219000,397.6651000976562500,12.9754400253295900,30.8726596832275400,16,3,50,102,58,41578
1340078751,5791,151.9499969482422000,13.0677003860473630,35.6329994201660160,289.0925903320312500,394.8557128906250000,13.0613403320312500,30.9108905792236330,16,3,50,100,59,63746
1340078813,5790,149.4600067138672000,13.0699996948242190,35.6311988830566400,288.2182006835937500,394.6697998046875000,13.0670299530029300,30.9420108795166000,16,3,51,99,59,42996
1340078873,5789,147.1000061035156200,13.0876998901367190,35.6324996948242200,288.4332885742187500,394.0693054199219000,13.0853900909423830,30.9253292083740230,16,3,52,103,59,27987
1340078957,5789,143.2500000000000000,13.1106996536254880,35.6352005004882800,288.2377929687500000,393.2185058593750000,13.1113901138305660,30.9207191467285160,16,3,50,102,58,7306
1340079017,5791,139.7599945068359400,13.1631002426147460,35.6402015686035160,288.1480102539062500,391.6135864257812500,13.1604404449462890,30.9016399383544920,16,3,52,101,59,64758
1340079079,5789,136.0899963378906200,13.1824998855590820,35.6417999267578100,288.4610900878906000,390.9298095703125000,13.1813402175903320,30.8797092437744140,16,3,52,102,60,5300
1340079139,5790,132.5899963378906200,13.2153997421264650,35.6441001892089840,288.6271972656250000,389.5909118652344000,13.2222499847412110,30.8545398712158200,16,3,52,99,59,32268
1340079201,5789,129.0899963378906200,13.2735996246337890,35.6446990966796900,289.0491027832031000,388.1076049804687500,13.2675600051879880,30.8170604705810550,16,3,54,101,59,57189
1340079261,5790,125.7500000000000000,13.3563003540039060,35.6520004272460940,289.2106933593750000,385.4241943359375000,13.3495101928710940,30.7730903625488280,16,3,55,102,59,16824
1340079323,5790,122.3199996948242200,13.3916997909545900,35.6530990600585940,289.3756103515625000,384.1556091308594000,13.3882398605346680,30.7489204406738280,16,3,56,101,58,48943
1340079383,5789,118.9800033569336000,13.4036998748779300,35.6533012390136700,289.6567077636719000,383.6742858886719000,13.4029302597045900,30.7314491271972660,16,3,56,102,59,30086
1340079445,5789,115.4300003051757800,13.4125995635986330,35.6538009643554700,289.7005920410156000,383.3548889160156000,13.4126796722412110,30.7252006530761720,16,3,56,100,59,6684
1340079505,5790,112.2099990844726600,13.4253997802734380,35.6535987854003900,289.7557067871094000,382.9411926269531000,13.4253101348876950,30.7172298431396500,16,3,56,101,59,442
1340079567,5791,108.9000015258789000,13.4518995285034180,35.6544990539550800,289.8861083984375000,382.1583862304687500,13.4491996765136720,30.7014808654785160,16,3,58,103,59,31543
1340079627,5788,105.7300033569336000,13.5257997512817380,35.6590003967285160,289.5870056152344000,379.6809082031250000,13.5248003005981450,30.6782302856445300,16,3,57,101,59,59310
1340079689,5791,102.6200027465820300,13.5890998840332030,35.6627006530761700,289.6957092285156000,377.3233032226562500,13.5967197418212890,30.6409797668457030,16,3,60,103,59,17734
1340079749,5790,99.6100006103515600,13.6483001708984380,35.6675987243652340,289.6664123535156000,375.7716979980469000,13.6440401077270500,30.6204795837402340,16,3,61,103,59,40554
